Location: Unspecified
(0.0000°N, 0.0000°E)
Time: 18:21:57
(UTC+00:00)

ISS - Pass Details

Date: 14 December 2019
Orbit: 417 x 423 km, 51.6° (Epoch: 30 November)

Event Time Altitude Azimuth Distance (km) Brightness Sun altitude
Rises 16:31:21 0° 353° (N) 2,339 -0.1 19.1°
Maximum altitude 16:36:03 15° 54° (NE) 1,237 -1.9 18.0°
Drops below altitude 10° 16:38:00 10° 90° (E) 1,489 -1.4 17.6°
Sets 16:40:48 0° 115° (ESE) 2,362 -0.3 16.9°
